Regional Weather Roundup
Issued by NWS Midland/Odessa, TX

Home | Current Version | Previous Version | Text Only | Print | Product List | Glossary On
Versions: 1 2 3 4 5 6 7 8 9 10 11 12 13 14 15 16 17 18 19 20 21 22 23 24 25 26 27 28 29 30 31 32 33 34 35 36 37 38 39 40 41 42 43 44 45 46 47 48 49 50
000
ASUS44 KMAF 160401
RWRMAF
MIDLAND AREA WEATHER ROUNDUP
NATIONAL WEATHER SERVICE MIDLAND TX
1000 PM CST SUN JAN 15 2017

...IN SOUTHWEST TEXAS AND SOUTHEAST NEW MEXICO...

CITY           SKY/WX    TMP DP  RH WIND       PRES   REMARKS
ALPINE         CLEAR     44  32  63 SW10      30.06S WCI  38
ANDREWS        FAIR      41  41 100 SW10      29.91S WCI  35
ARTESIA        PTCLDY    41  41 100 W5        29.92S WCI  38
BIG SPRING     CLOUDY    43  43 100 S6        29.93S VSB 1/4 WCI  40
CARLSBAD       CLEAR     40  39  97 NE6       29.91S WCI  36
DRYDEN           N/A     44  42  93 CALM      29.93R
FORT STOCKTON  CLEAR     44  33  65 SW10      29.96S WCI  39
GUAD PASS      CLOUDY    37  37 100 W37       29.94F FOG     WCI  23
HOBBS          NOT AVBL
MARFA          CLEAR     39  33  79 W9        30.03R WCI  33
MIDLAND AIRPK  CLEAR     46  42  87 SW10      29.93R
MIDLAND INTL   CLEAR     43  40  89 S8        29.93R WCI  38
ODESSA         CLEAR     43  38  82 SW9       29.94R WCI  38
PECOS          CLEAR     47  36  65 SW10      29.96R
PRESIDIO       FAIR      54  32  43 NW7       29.98S
SEMINOLE       FOG       40  40 100 CALM      29.92R VSB 1/2
SNYDER         FOG       38  38 100 W9        29.93R VSB 1/2 WCI  31
WINK           CLEAR     40  36  86 SW6       29.93S WCI  36
$$
...OTHER STATIONS IN TEXAS...

CITY           SKY/WX    TMP DP  RH WIND       PRES   REMARKS
ABILENE        CLOUDY    40  39  97 S3        29.90S FOG
AMARILLO       FRZ RAIN  31  31 100 N13       29.86F WCI  21
AUSTIN         CLOUDY    70  64  81 S9        29.92R
BROWNSVILLE    CLEAR     71  67  87 SE17      29.89R
CORPUS CHRISTI PTCLDY    70  67  90 SE16      29.89R
DALLAS FTW     TSTM      55  53  93 NW20G28   29.87R
DEL RIO        PTCLDY    54  47  77 W6        29.91R
EL PASO        PTCLDY    46  36  68 SW16G24   29.99S WCI  39
HOUSTON INT    MOCLDY    69  64  84 SE16      29.99R
LUBBOCK        LGT RAIN  37  36  96 W8        29.88R FOG     WCI  31
SAN ANGELO     CLEAR     42  42 100 S5        29.91R WCI  39
SAN ANTONIO    TSTM      68  63  84 SE10      29.89R
WACO           LGT RAIN  66  64  93 S20       29.89R
WICHITA FALLS  NOT AVBL
$$
...OTHER LOCATIONS IN NEW MEXICO...

CITY           SKY/WX    TMP DP  RH WIND       PRES   REMARKS
ALAMAGORDO     CLOUDY    45  43  93 S8        29.96S
ALBUQUERQUE    LGT RAIN  38  38 100 S9        29.92R WCI  31
CANNON AFB     FLURRIES  33  33 100 N7        29.89S WCI  26
CLOVIS         CLOUDY    34  28  80 NW8       29.89S WCI  27
HOLLOMAN AFB   MOCLDY    44  43  95 SE9       29.98S WCI  39
ROSWELL        CLOUDY    41  37  86 N6        29.91S WCI  37
RUIDOSO        CLOUDY    32  32 100 S5        29.93S WCI  27
SANTA FE       LGT SNOW  32  32 100 S7        29.89R FOG     WCI  26
TRUTH OR CONSE PTCLDY    42  39  89 NW6       29.91F WCI  38
TUCUMCARI      LGT SNOW  33  33 100 CALM      29.91R FOG
$$



USA.gov is the U.S. government's official web portal to all federal, state and local government web resources and services.